星链-4386 (STARLINK-4386 )

导读 | 星芒AI

STARLINK-4386 是 SpaceX Starlink 卫星互联网项目中的一颗低轨卫星,属于“星链”计划的组成部分。该卫星由 SpaceX 制造并发射,旨在为全球用户提供高速互联网服务。它运行在约 550 公里的近地轨道上,采用先进通信技术,支持宽带接入。STARLINK-4386 与其他星链卫星协同工作,构建覆盖广泛的卫星网络,以提升偏远地区的网络连接能力。该计划对全球通信基础设施具有重要意义。

基本信息
目录编号:
53649
目录名称:
STARLINK-4386
国际标识:
2022-105B
轨道中心:
EARTH
卫星名称:
星链-4386
卫星全名:
星链-4386 (STARLINK-4386 )
卫星状态:
在轨 (已飞行1166 天)
发射日期:
2022-08-31 UTC
国别 :
美国 (US)
星等 :
--
轨道信息
数据来源 国际轨道数据
星历时间: 2025-11-08T22:58:25+0800
1天前
查看轨道信息
半长轴: 6927.695km
偏心率: 0.0001739
轨道倾角: 97.601°
近地点辐角 82.005°
升交点赤经 191.943°
平近点角 278.138°
近地点: 548.355km
远地点: 550.765km
周期: 95.641分钟
每日圈数: 15.05635
详细信息
固有亮度:
5
最大亮度:
2.5
卫星平台:
Starlink v1.5
覆盖范围:
全球
运营商:
太空探索技术公司
运营商所在国:
美国
制造商(研发单位):
太空探索技术公司
制造商所在国:
美国
使用方式:
暂无
卫星简介
星链(Starlink)计划是由太空探索技术公司(SpaceX)提出的一个巨型低轨卫星互联网星座项目,计划在2019年至2024年间在太空搭建由约1.2万颗卫星组成的“星链”网络,其中1584颗将部署在地球上空550千米处的近地轨道,并从2020年开始工作。该卫星仍在工作。
2D轨道图
3D轨道图
轨道高度分析图
轨道倾角分析图
轨道综合分析图
查看轨道综合分析图